Weather History for Driggs, ID

Change the Weather History Date:

Monday, March 26, 2012

  Actual Average (KRXE) Record (KRXE)
Temperature  
Mean Temperature 42 °F 38 °F  
Max Temperature 52 °F 49 °F 65 °F (2007)
Min Temperature 32 °F 28 °F 16 °F (2005)
Degree Days  
Heating Degree Days 23 27  
Month to date heating degree days 828  
Since 1 July heating degree days 6801  
Cooling Degree Days 0 0  
Month to date cooling degree days 0  
Year to date cooling degree days 0  
Moisture  
Dew Point 29 °F    
Average Humidity 76    
Maximum Humidity 96    
Minimum Humidity 37    
Precipitation  
Precipitation 0.03 in 0.04 in 0.18 in (2003)
Month to date precipitation 0.82  
Year to date precipitation 2.39  
Sea Level Pressure  
Sea Level Pressure 29.71 in    
Wind  
Wind Speed 12 mph (South)    
Max Wind Speed 32 mph    
Max Gust Speed 38 mph    
Visibility 5 miles    
Events Fog , Snow    
T = Trace of Precipitation, MM = Missing Value Source: NWS Daily Summary

Daily Weather History Graph

Daily Weather History Graph

Search for Another Location

Airport:

Trip Planner

Search our weather history database for the weather conditions in past years. The results will help you decide how hot, cold, wet, or windy it might be!

Date:

Astronomy

Mar. 26, 2012 Rise Set
Actual Time 7:15 AM MDT 7:44 PM MDT
Civil Twilight 6:46 AM MDT 8:13 PM MDT
Nautical Twilight 6:12 AM MDT 8:47 PM MDT
Astronomical Twilight 5:37 AM MDT 9:22 PM MDT
Moon 8:58 AM MDT (3/26) No Moon Set
Length of Visible Light 13h 26m
Length of Day
12h 29m
Waxing Crescent, 15% of the Moon is Illuminated
Mar 26
Waxing Crescent
Mar 30
First Quarter
Apr 6
Full
Apr 13
Last Quarter
Apr 21
New

Hourly Weather History & Observations

Time (MDT) Temp. Windchill Dew Point Humidity Pressure Visibility Wind Dir Wind Speed Gust Speed Precip Events Conditions
12:56 AM 41.0 °F 35.8 °F 26.1 °F 55% 29.56 in 10.0 mi South 8.1 mph - N/A   Clear
1:56 AM 41.0 °F 37.1 °F 25.2 °F 53% 29.56 in 9.0 mi South 5.8 mph - N/A   Clear
2:56 AM 39.9 °F - 25.2 °F 56% 29.54 in 10.0 mi Calm Calm - N/A   Clear
3:56 AM 41.0 °F 38.0 °F 23.0 °F 49% 29.54 in 9.0 mi SSW 4.6 mph - N/A   Clear
4:56 AM 36.0 °F 33.3 °F 24.1 °F 62% 29.54 in 9.0 mi NE 3.5 mph - N/A   Mostly Cloudy
5:56 AM 38.8 °F 35.4 °F 24.1 °F 55% 29.51 in 9.0 mi WSW 4.6 mph - N/A   Clear
6:56 AM 38.8 °F 33.2 °F 22.1 °F 51% 29.52 in 9.0 mi SSW 8.1 mph - N/A   Clear
7:56 AM 37.9 °F - 22.1 °F 53% 29.54 in 6.0 mi Calm Calm - N/A   Haze
8:56 AM 47.8 °F - 27.1 °F 45% 29.50 in 10.0 mi Calm Calm - N/A   Mostly Cloudy
9:56 AM 52.0 °F - 26.1 °F 37% 29.47 in 10.0 mi SSW 11.5 mph - N/A   Scattered Clouds
10:56 AM 48.9 °F - 26.1 °F 41% 29.48 in 10.0 mi SW 20.7 mph - N/A   Scattered Clouds
11:56 AM 46.9 °F - 29.1 °F 50% 29.49 in 10.0 mi SW 10.4 mph - N/A   Mostly Cloudy
12:56 PM 41.9 °F 32.3 °F 32.9 °F 70% 29.56 in 10.0 mi SSW 23.0 mph 38.0 mph 0.00 in   Mostly Cloudy
12:58 PM 41.0 °F 29.5 °F 33.8 °F 76% 29.68 in 10.0 mi SSW 32.2 mph 38.0 mph N/A   Squalls
1:07 PM 35.6 °F 22.5 °F 32.0 °F 87% 29.69 in 2.5 mi SSW 29.9 mph - 0.00 in Snow Light Snow
1:09 PM 33.8 °F 20.5 °F 30.2 °F 87% 29.70 in 1.0 mi SSW 27.6 mph - 0.00 in Snow Light Snow
1:11 PM 33.8 °F 20.8 °F 30.2 °F 87% 29.70 in 0.5 mi SSW 26.5 mph - 0.00 in Fog , Snow Light Snow
1:18 PM 33.8 °F 22.2 °F 30.2 °F 87% 29.71 in 0.2 mi SSW 20.7 mph - 0.00 in Fog , Snow Light Snow
1:32 PM 33.8 °F 22.5 °F 30.2 °F 87% 29.72 in 0.8 mi South 19.6 mph - 0.00 in Snow Light Snow
1:56 PM 32.9 °F 23.7 °F 32.0 °F 96% 29.66 in 0.8 mi South 12.7 mph - 0.01 in Snow Light Snow
2:03 PM 33.8 °F 24.8 °F 32.0 °F 93% 29.74 in 1.0 mi South 12.7 mph - 0.00 in Snow Light Snow
2:10 PM 33.8 °F 24.8 °F 32.0 °F 93% 29.74 in 1.0 mi SSE 12.7 mph - 0.01 in Snow Light Snow
2:17 PM 33.8 °F 23.9 °F 32.0 °F 93% 29.74 in 1.0 mi South 15.0 mph - 0.01 in Snow Light Snow
2:37 PM 33.8 °F 24.3 °F 32.0 °F 93% 29.75 in 1.2 mi South 13.8 mph - 0.01 in Snow Light Snow
2:56 PM 34.0 °F 26.0 °F 32.0 °F 92% 29.69 in 1.8 mi South 10.4 mph - 0.02 in Snow Light Snow
3:01 PM 33.8 °F 24.8 °F 32.0 °F 93% 29.77 in 1.2 mi South 12.7 mph - 0.00 in Snow Light Snow
3:06 PM 33.8 °F 24.8 °F 32.0 °F 93% 29.77 in 1.0 mi South 12.7 mph - 0.00 in Snow Light Snow
3:12 PM 33.8 °F 22.8 °F 32.0 °F 93% 29.77 in 1.5 mi SSW 18.4 mph - 0.00 in Snow Light Snow
3:56 PM 34.0 °F 23.8 °F 31.1 °F 89% 29.73 in 1.2 mi SSW 16.1 mph - 0.00 in   Overcast
4:11 PM 33.8 °F 22.2 °F 30.2 °F 87% 29.81 in 1.0 mi SSW 20.7 mph - 0.00 in   Overcast
4:20 PM 33.8 °F 24.3 °F 30.2 °F 87% 29.82 in 1.2 mi South 13.8 mph - 0.00 in   Overcast
4:25 PM 33.8 °F 23.9 °F 30.2 °F 87% 29.82 in 1.8 mi South 15.0 mph - 0.00 in   Overcast
4:40 PM 33.8 °F 24.8 °F 30.2 °F 87% 29.83 in 1.2 mi SSW 12.7 mph - 0.00 in   Overcast
4:45 PM 33.8 °F 24.8 °F 30.2 °F 87% 29.83 in 2.0 mi South 12.7 mph - 0.00 in   Overcast
4:56 PM 34.0 °F 25.0 °F 31.1 °F 89% 29.78 in 2.5 mi SSE 12.7 mph - 0.00 in   Mostly Cloudy
5:31 PM 33.8 °F 23.2 °F 28.4 °F 81% 29.84 in 4.0 mi South 17.3 mph - 0.00 in   Haze
5:40 PM 33.8 °F 22.5 °F 28.4 °F 81% 29.84 in 5.0 mi South 19.6 mph - 0.00 in   Overcast
5:56 PM 34.9 °F 24.6 °F 29.1 °F 79% 29.78 in 3.0 mi South 17.3 mph - 0.00 in   Overcast
6:02 PM 33.8 °F 22.8 °F 28.4 °F 81% 29.85 in 2.5 mi South 18.4 mph - 0.00 in   Overcast
6:56 PM 34.0 °F 23.8 °F 30.0 °F 85% 29.81 in 2.0 mi South 16.1 mph - 0.00 in Snow Light Snow
7:01 PM 33.8 °F 23.9 °F 28.4 °F 81% 29.88 in 3.0 mi South 15.0 mph - 0.00 in Snow Light Snow
7:46 PM 33.8 °F 25.3 °F 28.4 °F 81% 29.90 in 5.0 mi South 11.5 mph - 0.00 in Snow Light Snow
7:56 PM 34.0 °F 25.0 °F 28.0 °F 79% 29.84 in 7.0 mi SSW 12.7 mph - 0.00 in   Overcast
8:56 PM 34.0 °F 24.6 °F 25.2 °F 70% 29.83 in 9.0 mi South 13.8 mph - N/A   Overcast
9:56 PM 32.9 °F 24.1 °F 25.2 °F 73% 29.85 in 9.0 mi SSE 11.5 mph - N/A   Mostly Cloudy
10:56 PM 32.9 °F 25.9 °F 25.2 °F 73% 29.88 in 9.0 mi SSE 8.1 mph - N/A   Overcast
11:56 PM 32.9 °F 24.1 °F 25.2 °F 73% 29.91 in 10.0 mi SSE 11.5 mph - N/A   Overcast